Location: Berlin
(42.3812°N, 71.6370°W)
Time: 12:34:18
(UTC+00:00)

Cosmos 1943 - Pass Details

Date: 22 February 2026
Orbit: 830 x 850 km, 71.0° (Epoch: 8 March)

Event Time Altitude Azimuth Distance (km) Brightness Sun altitude
Rises 00:27:25 0° 330° (NNW) 3,422 6.9 -23.0°
Reaches altitude 10° 00:29:56 10° 325° (NW) 2,481 6.2 -23.4°
Maximum altitude 00:35:23 48° 253° (WSW) 1,094 4.1 -24.4°
Drops below altitude 10° 00:40:47 10° 180° (S) 2,456 5.5 -25.4°
Enters shadow 00:41:29 - 178° (S) 2,712 5.7 -25.5°
